Previsão horária em Abella de la Conca

Hoje, 11 Abril, Domingo

Tempo Temperatura Precipitação Vento Pressão Humidade
00:00 +4°C° 0 mm 1 m/s 651 mmHg 93%
01:00 +4°C° 0 mm 1 m/s 650 mmHg 93%
02:00 +4°C° 0 mm 1 m/s 650 mmHg 93%
03:00 +4°C° 0 mm 1 m/s 650 mmHg 92%
04:00 +4°C° 0 mm 1 m/s 650 mmHg 92%
05:00 +4°C° 0 mm 1 m/s 650 mmHg 92%
06:00 +4°C° 0 mm 1 m/s 650 mmHg 92%
07:00 +6°C° 0.1 mm 1 m/s 651 mmHg 86%
08:00 +8°C° 0.1 mm 1 m/s 651 mmHg 79%
09:00 +10°C° 0.1 mm 1 m/s 652 mmHg 72%
10:00 +9°C° 0.6 mm 2 m/s 652 mmHg 73%
11:00 +9°C° 0.6 mm 2 m/s 652 mmHg 74%
12:00 +9°C° 0.6 mm 3 m/s 652 mmHg 75%
13:00 +9°C° 1 mm 2 m/s 651 mmHg 79%
14:00 +8°C° 1 mm 2 m/s 651 mmHg 83%
15:00 +8°C° 1 mm 1 m/s 651 mmHg 87%
16:00 +6°C° 1 mm 2 m/s 652 mmHg 89%
17:00 +5°C° 1 mm 2 m/s 652 mmHg 91%
18:00 +4°C° 1 mm 2 m/s 652 mmHg 93%
19:00 +4°C° 0.1 mm 2 m/s 653 mmHg 91%
20:00 +3°C° 0.1 mm 2 m/s 653 mmHg 89%
21:00 +3°C° 0.1 mm 2 m/s 654 mmHg 88%
22:00 +2°C° 0 mm 2 m/s 654 mmHg 87%
23:00 +2°C° 0 mm 2 m/s 654 mmHg 86%

Amanhã, 12 Abril, Segunda-feira

Tempo Temperatura Precipitação Vento Pressão Humidade
00:00 +1°C° 0 mm 2 m/s 654 mmHg 85%
01:00 -1°C° 0 mm 2 m/s 654 mmHg 84%
02:00 -1°C° 0 mm 2 m/s 654 mmHg 84%
03:00 -2°C° 0 mm 2 m/s 654 mmHg 83%
04:00 -2°C° 0 mm 2 m/s 655 mmHg 83%
05:00 -3°C° 0 mm 2 m/s 655 mmHg 83%
06:00 -3°C° 0 mm 2 m/s 655 mmHg 83%
07:00 -1°C° 0 mm 2 m/s 656 mmHg 70%
08:00 +2°C° 0 mm 2 m/s 656 mmHg 58%
09:00 +4°C° 0 mm 2 m/s 657 mmHg 46%
10:00 +6°C° 0 mm 2 m/s 657 mmHg 40%
11:00 +7°C° 0 mm 2 m/s 657 mmHg 35%
12:00 +9°C° 0 mm 2 m/s 658 mmHg 30%
13:00 +9°C° 0 mm 2 m/s 658 mmHg 30%
14:00 +9°C° 0 mm 2 m/s 657 mmHg 30%
15:00 +10°C° 0 mm 3 m/s 657 mmHg 30%
16:00 +8°C° 0 mm 2 m/s 657 mmHg 38%
17:00 +6°C° 0 mm 2 m/s 657 mmHg 46%
18:00 +5°C° 0 mm 2 m/s 658 mmHg 53%
19:00 +3°C° 0 mm 2 m/s 658 mmHg 60%
20:00 0°C° 0 mm 3 m/s 658 mmHg 66%
21:00 -2°C° 0 mm 3 m/s 659 mmHg 73%
22:00 -2°C° 0 mm 3 m/s 658 mmHg 71%
23:00 -4°C° 0 mm 3 m/s 658 mmHg 70%

Depois de amanhã, 13 Abril, Terça-feira

Tempo Temperatura Precipitação Vento Pressão Humidade
00:00 -4°C° 0 mm 3 m/s 658 mmHg 68%
01:00 -3°C° 0 mm 2 m/s 658 mmHg 65%
02:00 -3°C° 0 mm 2 m/s 658 mmHg 63%
03:00 -4°C° 0 mm 2 m/s 657 mmHg 60%
04:00 -3°C° 0 mm 2 m/s 658 mmHg 57%
05:00 -3°C° 0 mm 2 m/s 658 mmHg 54%
06:00 -3°C° 0 mm 2 m/s 658 mmHg 50%
07:00 +1°C° 0 mm 2 m/s 658 mmHg 43%
08:00 +5°C° 0 mm 1 m/s 659 mmHg 36%
09:00 +8°C° 0 mm 1 m/s 659 mmHg 28%
10:00 +9°C° 0 mm 1 m/s 659 mmHg 28%
11:00 +9°C° 0 mm 2 m/s 659 mmHg 28%
12:00 +10°C° 0 mm 2 m/s 659 mmHg 28%
13:00 +12°C° 0 mm 2 m/s 659 mmHg 29%
14:00 +12°C° 0 mm 2 m/s 658 mmHg 30%
15:00 +12°C° 0 mm 2 m/s 658 mmHg 31%
16:00 +10°C° 0 mm 2 m/s 658 mmHg 39%
17:00 +9°C° 0 mm 1 m/s 657 mmHg 48%
18:00 +8°C° 0 mm 1 m/s 657 mmHg 56%
19:00 +6°C° 0 mm 1 m/s 657 mmHg 60%
20:00 +5°C° 0 mm 1 m/s 657 mmHg 64%
21:00 +4°C° 0 mm 1 m/s 658 mmHg 68%
22:00 +3°C° 0 mm 1 m/s 657 mmHg 71%
23:00 +3°C° 0 mm 1 m/s 657 mmHg 74%

14 Abril, Quarta-feira

Tempo Temperatura Precipitação Vento Pressão Humidade
00:00 +2°C° 0 mm 1 m/s 657 mmHg 77%
01:00 +2°C° 0 mm 1 m/s 657 mmHg 78%
02:00 +2°C° 0 mm 1 m/s 656 mmHg 78%
03:00 +1°C° 0 mm 1 m/s 656 mmHg 79%
04:00 +2°C° 0 mm 1 m/s 656 mmHg 77%
05:00 +2°C° 0 mm 1 m/s 656 mmHg 75%
06:00 +2°C° 0 mm 1 m/s 656 mmHg 73%
07:00 +5°C° 0 mm 1 m/s 656 mmHg 65%
08:00 +7°C° 0 mm 1 m/s 656 mmHg 57%
09:00 +9°C° 0 mm 1 m/s 657 mmHg 49%
10:00 +10°C° 0 mm 2 m/s 657 mmHg 46%
11:00 +12°C° 0 mm 2 m/s 657 mmHg 43%
12:00 +13°C° 0 mm 2 m/s 657 mmHg 40%
13:00 +13°C° 0 mm 2 m/s 656 mmHg 41%
14:00 +13°C° 0 mm 2 m/s 656 mmHg 41%
15:00 +13°C° 0 mm 2 m/s 655 mmHg 42%
16:00 +12°C° 0 mm 2 m/s 655 mmHg 50%
17:00 +9°C° 0 mm 2 m/s 655 mmHg 59%
18:00 +8°C° 0 mm 2 m/s 655 mmHg 67%
19:00 +8°C° 0 mm 1 m/s 655 mmHg 74%
20:00 +6°C° 0 mm 1 m/s 655 mmHg 80%
21:00 +5°C° 0 mm 1 m/s 655 mmHg 87%
22:00 +5°C° 0 mm 1 m/s 655 mmHg 87%
23:00 +5°C° 0 mm 1 m/s 655 mmHg 88%

15 Abril, Quinta-feira

Tempo Temperatura Precipitação Vento Pressão Humidade
00:00 +4°C° 0 mm 1 m/s 655 mmHg 88%
01:00 +4°C° 0 mm 1 m/s 655 mmHg 88%
02:00 +4°C° 0 mm 1 m/s 654 mmHg 87%
03:00 +4°C° 0 mm 1 m/s 654 mmHg 87%
04:00 +4°C° 0 mm 1 m/s 654 mmHg 85%
05:00 +4°C° 0 mm 1 m/s 654 mmHg 84%
06:00 +4°C° 0 mm 1 m/s 654 mmHg 83%
07:00 +6°C° 0 mm 1 m/s 655 mmHg 76%
08:00 +7°C° 0 mm 1 m/s 655 mmHg 70%
09:00 +8°C° 0 mm 1 m/s 655 mmHg 64%
10:00 +9°C° 0 mm 1 m/s 655 mmHg 59%
11:00 +9°C° 0 mm 2 m/s 655 mmHg 54%
12:00 +10°C° 0 mm 2 m/s 655 mmHg 49%
13:00 +10°C° 0 mm 2 m/s 654 mmHg 50%
14:00 +10°C° 0 mm 2 m/s 654 mmHg 52%
15:00 +9°C° 0 mm 2 m/s 654 mmHg 53%
16:00 +8°C° 0.1 mm 2 m/s 654 mmHg 60%
17:00 +8°C° 0.1 mm 1 m/s 653 mmHg 66%
18:00 +7°C° 0.1 mm 1 m/s 653 mmHg 73%
19:00 +6°C° 0.1 mm 1 m/s 654 mmHg 75%
20:00 +6°C° 0.1 mm 1 m/s 654 mmHg 77%
21:00 +5°C° 0.1 mm 1 m/s 654 mmHg 80%
22:00 +5°C° 0.1 mm 1 m/s 654 mmHg 80%
23:00 +4°C° 0.1 mm 0 m/s 654 mmHg 81%

16 Abril, Sexta-feira

Tempo Temperatura Precipitação Vento Pressão Humidade
00:00 +3°C° 0.1 mm 0 m/s 653 mmHg 82%
01:00 +3°C° 0.1 mm 0 m/s 653 mmHg 82%
02:00 +3°C° 0.1 mm 0 m/s 653 mmHg 82%
03:00 +4°C° 0.1 mm 1 m/s 653 mmHg 83%
04:00 +4°C° 0.1 mm 1 m/s 652 mmHg 82%
05:00 +4°C° 0.1 mm 1 m/s 652 mmHg 82%
06:00 +3°C° 0.1 mm 1 m/s 652 mmHg 82%
07:00 +4°C° 0.2 mm 1 m/s 652 mmHg 80%
08:00 +4°C° 0.2 mm 1 m/s 652 mmHg 79%
09:00 +4°C° 0.2 mm 1 m/s 653 mmHg 78%
10:00 +5°C° 0.2 mm 1 m/s 653 mmHg 77%
11:00 +5°C° 0.2 mm 1 m/s 652 mmHg 76%
12:00 +6°C° 0.2 mm 1 m/s 652 mmHg 75%
13:00 +6°C° 0.4 mm 1 m/s 652 mmHg 73%
14:00 +6°C° 0.4 mm 1 m/s 652 mmHg 72%
15:00 +6°C° 0.4 mm 1 m/s 652 mmHg 71%
16:00 +5°C° 0.9 mm 1 m/s 652 mmHg 75%
17:00 +5°C° 0.9 mm 1 m/s 652 mmHg 80%
18:00 +4°C° 0.9 mm 1 m/s 652 mmHg 84%
19:00 +3°C° 0.9 mm 1 m/s 652 mmHg 87%
20:00 +3°C° 0.9 mm 1 m/s 652 mmHg 90%
21:00 +2°C° 0.9 mm 1 m/s 652 mmHg 93%
22:00 +2°C° 1 mm 1 m/s 652 mmHg 93%
23:00 +2°C° 1 mm 1 m/s 652 mmHg 94%
Mostrar mais

Necessitamos do seu Consentimento

A Meteoprog e os seus Fornecedores de Serviços podem armazenar e aceder a dados pessoais como cookies, identificadores do dispositivo ou outras tecnologias semelhantes existentes no seu dispositivo e processar estes dados para personalizar conteúdos e anúncios, assim como funcionalidades nas redes sociais e análise de tráfego.

  • Armazenar e/ou aceder a informações no seu dispositivo

    Os cookies, identificadores do dispositivo ou outras informações podem ser armazenados ou acedidos no seu dispositivo, para os fins acima indicados.

  • Anúncios e conteúdos personalizados, medição de anúncios e conteúdos, dados sobre o público-alvo e desenvolvimento de produtos

    Os anúncios e os conteúdos podem ser personalizados com base num perfil. Podem ser adicionados dados adicionais para uma maior personalização dos anúncios e dos conteúdos. A eficácia dos anúncios e dos conteúdos pode ser medida. Podem ser obtidas informações sobre o público que visualizou os anúncios e os conteúdos. Estes dados podem ser usados para desenvolver ou melhorar sistemas, softwares ou a experiência do utilizador.

Ao clicar em "Eu concordo”, permitirá o uso de cookies, identificadores do dispositivo e web beacons mencionados ou outras tecnologias semelhantes. As configurações do navegador do seu dispositivo podem ser alteradas.

Para certos fins, podem ser invocados interesses legítimos ao invés de consentimento. Pode ler mais informação sobre este assunto na nossa Política de Privacidade e Cookies.